Voltar ao catálogo

CZ-6A DEB

AtivoPO
NORAD 60799·DEBRIS·🇨🇳 China

Lançado Aug 6, 2024 de Taiyuan Satellite Launch Center

Loading…

Próximas Passagens (próximas 24 horas)

TLE

AtualizadoSource: Space-Track

Época: Sep 14, 2026, 11:30 UTC

1 60799U 24140GA  26257.47930443  .00000323  00000-0  67303-4 0  9999
2 60799  88.9548 255.6610 0111396 308.6670  50.4611 14.53781908110893

Acompanhe CZ-6A DEB em tempo real com AllMySat

Download on the App Store